Regional Weather Roundup
Issued by NWS

Home | Current Version | Previous Version | Graphics & Text | Print | Product List | Glossary On
Versions: 1 2 3 4 5 6 7 8 9 10 11 12 13 14 15 16 17 18 19 20 21 22 23 24 25 26 27 28 29 30 31 32 33 34 35 36 37 38 39 40 41 42 43 44 45 46 47 48 49 50
000
ASUS43 KDTX 191810
RWRMI
MICHIGAN HOURLY REGIONAL WEATHER ROUNDUP
NATIONAL WEATHER SERVICE DETROIT/PONTIAC MI
200 PM EDT SAT AUG 19 2017

NOTE: "FAIR" INDICATES FEW OR NO CLOUDS BELOW 12,000 FEET WITH NO
SIGNIFICANT WEATHER AND/OR OBSTRUCTION TO VISIBILITY.

MIZ047>049-052>055-059>063-066>070-074>076-081>083-191900-
SOUTHEAST LOWER MICHIGAN

CITY           SKY/WX    TMP DP  RH WIND       PRES   REMARKS
ADRIAN         MOSUNNY   78  59  51 NW9       29.95S
6HR MIN TEMP:  63; 6HR MAX TEMP:  79;

ALMA           MOSUNNY   76  56  48 W9        29.94S
ANN ARBOR      MOSUNNY   79  56  45 W12       29.93S
BAD AXE        PTSUNNY   72  57  59 NW10      29.91S
6HR MIN TEMP:  62; 6HR MAX TEMP:  72;

CARO           MOSUNNY   74  56  53 NW6       29.92S
DETROIT CITY   MOSUNNY   76  54  46 NW9       29.92S
6HR MIN TEMP:  66; 6HR MAX TEMP:  78;

DETROIT        MOSUNNY   80  57  45 NW12      29.93S
6HR MIN TEMP:  67; 6HR MAX TEMP:  80;

FLINT          MOSUNNY   76  57  51 NW12      29.93S
6HR MIN TEMP:  63; 6HR MAX TEMP:  76;

GROSSE ILE     MOSUNNY   79  57  47 N9G18     29.91S
6HR MIN TEMP:  65; 6HR MAX TEMP:  79;

HILLSDALE      CLOUDY    77  55  47 NW8       29.96S
HOWELL         PTSUNNY   75  56  52 NW9       29.95S
6HR MIN TEMP:  62; 6HR MAX TEMP:  76;


CITY           SKY/WX    TMP DP  RH WIND       PRES   REMARKS
JACKSON        SUNNY     76  54  46 NW9       29.95S
6HR MIN TEMP:  63; 6HR MAX TEMP:  76;

LAMBERTVILLE   SUNNY     78  59  51 NW9       29.93S
6HR MIN TEMP:  64; 6HR MAX TEMP:  79;

LANSING        MOSUNNY   76  55  48 VRB5      29.95S
6HR MIN TEMP:  63; 6HR MAX TEMP:  76;

LAPEER         PTSUNNY   72  56  56 N9        29.93S
6HR MIN TEMP:  63; 6HR MAX TEMP:  74;

MASON          MOSUNNY   76  56  49 W6        29.95S
MONROE         PTSUNNY   79  61  54 NW10      29.92S
6HR MIN TEMP:  64; 6HR MAX TEMP:  80;

MT. CLEMENS    MOSUNNY   77  59  52 W10       29.91S
6HR MIN TEMP:  65; 6HR MAX TEMP:  77;

PONTIAC        PTSUNNY   74  57  55 NW10      29.93S
6HR MIN TEMP:  64; 6HR MAX TEMP:  74;

PORT HOPE        N/A     72  60  66 NW7       29.88S
6HR MIN TEMP:  64; 6HR MAX TEMP:  72;

PORT HURON     CLOUDY    72  57  60 W5        29.92S
TRI CITIES     MOSUNNY   74  59  59 NW7       29.93R
6HR MIN TEMP:  62; 6HR MAX TEMP:  76;

MIDLAND        PTSUNNY   76  58  53 W7        29.91S
6HR MIN TEMP:  60; 6HR MAX TEMP:  78;

TROY           MOSUNNY   75  55  49 W8G18     29.95R
SAGINAW HB     MOSUNNY   73  57  56 NW10      29.92R
$$
MIZ043>046-050>051-056>058-064>065-071>073-077>080-191900-
SOUTHWEST LOWER MICHIGAN

CITY           SKY/WX    TMP DP  RH WIND       PRES   REMARKS
BATTLE CREEK   SUNNY     78  56  46 W10       29.97S
6HR MIN TEMP:  63; 6HR MAX TEMP:  78;

BENTON HARBOR  SUNNY     78  56  46 VRB5      29.97S
6HR MIN TEMP:  64; 6HR MAX TEMP:  78;

BIG RAPIDS     PTSUNNY   75  56  50 W8        29.93S
6HR MIN TEMP:  59; 6HR MAX TEMP:  76;

COLDWATER      MOSUNNY   80  52  37 NW8       29.96S
6HR MIN TEMP:  63; 6HR MAX TEMP:  80;

FREMONT        FAIR      77  59  54 NW5       29.94S
HOLLAND        SUNNY     74  60  61 SW9       29.97S
6HR MIN TEMP:  62; 6HR MAX TEMP:  76;

GRAND RAPIDS   MOSUNNY   77  57  50 W9        29.95S
6HR MIN TEMP:  63; 6HR MAX TEMP:  78;

IONIA          FAIR      76  56  48 W8        29.95R
6HR MIN TEMP:  63; 6HR MAX TEMP:  77;

KALAMAZOO      MOSUNNY   81  53  37 W13       29.96S
6HR MIN TEMP:  63; 6HR MAX TEMP:  81;

LUDINGTON      PTSUNNY   71  65  81 SW10      29.94R
6HR MIN TEMP:  64; 6HR MAX TEMP:  72;

MARSHALL       SUNNY     78  55  45 W5        29.95F
6HR MIN TEMP:  61; 6HR MAX TEMP:  78;

MOUNT PLEASANT MOSUNNY   79  56  45 W7        29.92S
6HR MIN TEMP:  63; 6HR MAX TEMP:  79;

MUSKEGON       MOSUNNY   77  63  61 W10       29.96R
6HR MIN TEMP:  60; 6HR MAX TEMP:  77;

SOUTH HAVEN    SUNNY     77  59  54 NW8       29.97S
$$
MIZ016>042-191900-
NORTHERN LOWER MICHIGAN

CITY           SKY/WX    TMP DP  RH WIND       PRES   REMARKS
ALPENA         PTSUNNY   77  58  51 NW10G21   29.88R
6HR MIN TEMP:  62; 6HR MAX TEMP:  77;

BEAVER ISLAND  SUNNY     72  64  74 SW13      29.88F
6HR MIN TEMP:  62; 6HR MAX TEMP:  73;

BELLAIRE       MOSUNNY   75  56  51 SW8       29.89F
6HR MIN TEMP:  60; 6HR MAX TEMP:  75;

CADILLAC       MOSUNNY   77  56  48 W13       29.93S
CHARLEVOIX     SUNNY     75  58  56 W13G18    29.92S
FRANKFORT      CLOUDY    71  66  85 SW9       29.92S
GAYLORD        PTSUNNY   72  56  57 W13       29.91S
6HR MIN TEMP:  59; 6HR MAX TEMP:  73;

GRAYLING       MOSUNNY   74  57  55 W8        29.92F
6HR MIN TEMP:  59; 6HR MAX TEMP:  74;

HARBOR SPRINGS MOSUNNY   73  58  58 W8        29.88F
HOUGHTON LAKE  MOSUNNY   74  58  57 W10       29.92F
6HR MIN TEMP:  61; 6HR MAX TEMP:  74;

MANISTEE       SUNNY     72  65  78 W14       29.92S
OSCODA         PTSUNNY   77  54  43 NW13G20   29.87S
6HR MIN TEMP:  63; 6HR MAX TEMP:  77;

PELLSTON       SUNNY     74  55  51 W14G22    29.88F
6HR MIN TEMP:  61; 6HR MAX TEMP:  75;

ROGERS CITY    PTSUNNY   70  61  73 N9        29.88S
TRAVERSE CITY  PTSUNNY   79  56  45 W15G21    29.88S
6HR MIN TEMP:  61; 6HR MAX TEMP:  79;

$$
MIZ007>008-015-191900-
EASTERN UPPER MICHIGAN

CITY           SKY/WX    TMP DP  RH WIND       PRES   REMARKS
KINROSS        PTSUNNY   72  60  66 SW7       29.87S
6HR MIN TEMP:  58; 6HR MAX TEMP:  72;

MACKINAC ISLAN SUNNY     69  62  79 W10G16    29.88S
6HR MIN TEMP:  59; 6HR MAX TEMP:  69;

NEWBERRY       PTSUNNY   71  62  71 SW5       29.86S
6HR MIN TEMP:  55; 6HR MAX TEMP:  73;

S. S. MARIE    SUNNY     72  59  63 W8        29.85S
6HR MIN TEMP:  61; 6HR MAX TEMP:  72;

MUNISING         N/A     69  65  86 E7        29.86R
6HR MIN TEMP:  58; 6HR MAX TEMP:  73;

$$
MIZ004>006-011>014-085-191900-
CENTRAL UPPER MICHIGAN

CITY           SKY/WX    TMP DP  RH WIND       PRES   REMARKS
MANISTIQUE     SUNNY     71  64  78 S9        29.86S
6HR MIN TEMP:  58; 6HR MAX TEMP:  72;

ESCANABA       PTSUNNY   75  65  70 S12       29.86F
6HR MIN TEMP:  57; 6HR MAX TEMP:  76;

MENOMINEE      SUNNY     78  62  57 W9        29.88F
6HR MIN TEMP:  59; 6HR MAX TEMP:  78;

SAWYER-GWINN   PTSUNNY   77  59  53 NW7       29.86F
$$
MIZ001>003-009>011-084-191900-
WESTERN UPPER MICHIGAN

CITY           SKY/WX    TMP DP  RH WIND       PRES   REMARKS
IRON MOUNTAIN  SUNNY     79  55  43 W10       29.87F
6HR MIN TEMP:  58; 6HR MAX TEMP:  80;

HOUGHTON       SUNNY     73  60  63 W18       29.86S
COPPER HARBOR    N/A     67  58  72 N17       29.83S
6HR MIN TEMP:  63; 6HR MAX TEMP:  69;

IRONWOOD       SUNNY     77  59  53 W12G20    29.90S
6HR MIN TEMP:  57; 6HR MAX TEMP:  77;

$$

ABBREVIATIONS USED IN REMARKS
   TC - TEMPERATURE IN CELSIUS
  WCI - WIND CHILL INDEX
   HX - HEAT INDEX
  VSB - VISIBILITY




USA.gov is the U.S. government's official web portal to all federal, state and local government web resources and services.